Location: Great Snoring
(52.8667°N, 0.8833°E)
Time: 22:30:20
(UTC+00:00)

ARIANE 5 R/B - Pass Details

Date: 19 May 2025
Orbit: 614 x 648 km, 98.0° (Epoch: 01 June)

Event Time Altitude Azimuth Distance (km) Brightness Sun altitude
Exits shadow 21:23:51 - 109° (ESE) 2,100 4.8 -10.3°
Reaches altitude 10° 21:24:13 10° 105° (ESE) 1,986 4.7 -10.4°
Maximum altitude 21:27:22 20° 58° (ENE) 1,437 4.4 -10.6°
Drops below altitude 10° 21:30:34 10° 11° (N) 2,008 5.9 -10.9°
Sets 21:33:13 0° 355° (N) 2,926 7.2 -11.1°
